DLH4NE EDDF-EBBR

Flight info

Callsign DLH4NE
Flight time 0h 31m
Altitude 22000
Route SOBRA2L/18 SOBRA Y180 BITBU Y181 GOPAS N852 LNO
Aircraft A320/M-SDE2E3FGIJ1LORWXYZ/HB1

Departure

Time 2026-05-07 21:31
Airport Frankfurt Main Airport (EDDF)

Arrival

Time 2026-05-07 22:03
Airport Brussels Airport (EBBR)
Time Latitude Longitude Altitude Speed Heading
2026-05-07 21:11 50.04577 8.56632 364 ft 0 kts 114°
2026-05-07 21:22 50.04579 8.56625 363 ft 2 kts 114°
2026-05-07 21:22 50.04586 8.56601 363 ft 2 kts 114°
2026-05-07 21:22 50.04593 8.56577 363 ft 2 kts 114°
2026-05-07 21:22 50.04600 8.56552 361 ft 2 kts 114°
2026-05-07 21:23 50.04607 8.56528 356 ft 3 kts 121°
2026-05-07 21:23 50.04619 8.56507 361 ft 3 kts 157°
2026-05-07 21:23 50.04636 8.56501 358 ft 3 kts 193°
2026-05-07 21:23 50.04642 8.56503 357 ft 0 kts 200°
2026-05-07 21:24 50.04641 8.56503 357 ft 1 kts 200°
2026-05-07 21:24 50.04611 8.56485 359 ft 6 kts 200°
2026-05-07 21:24 50.04559 8.56448 363 ft 12 kts 207°
2026-05-07 21:25 50.04503 8.56333 357 ft 14 kts 249°
2026-05-07 21:25 50.04462 8.56157 359 ft 20 kts 249°
2026-05-07 21:25 50.04397 8.56029 356 ft 14 kts 185°
2026-05-07 21:25 50.04323 8.56067 357 ft 10 kts 160°
2026-05-07 21:26 50.04256 8.56011 356 ft 18 kts 245°
2026-05-07 21:26 50.04204 8.55790 360 ft 24 kts 250°
2026-05-07 21:26 50.04144 8.55543 354 ft 25 kts 249°
2026-05-07 21:26 50.04082 8.55287 357 ft 25 kts 250°
2026-05-07 21:27 50.04025 8.55042 356 ft 24 kts 249°
2026-05-07 21:27 50.03964 8.54786 355 ft 26 kts 250°
2026-05-07 21:27 50.03899 8.54520 351 ft 28 kts 249°
2026-05-07 21:27 50.03810 8.54254 348 ft 28 kts 241°
2026-05-07 21:28 50.03744 8.53990 353 ft 25 kts 250°
2026-05-07 21:28 50.03682 8.53730 345 ft 27 kts 249°
2026-05-07 21:28 50.03611 8.53448 339 ft 29 kts 249°
2026-05-07 21:28 50.03541 8.53150 337 ft 28 kts 250°
2026-05-07 21:29 50.03470 8.52869 332 ft 28 kts 247°
2026-05-07 21:29 50.03401 8.52630 333 ft 20 kts 229°
2026-05-07 21:29 50.03301 8.52594 332 ft 0 kts 179°
2026-05-07 21:30 50.03220 8.52595 335 ft 43 kts 179°
2026-05-07 21:30 50.02653 8.52600 332 ft 116 kts 180°
2026-05-07 21:31 50.01656 8.52615 349 ft 167 kts 178°
2026-05-07 21:31 50.00459 8.52631 890 ft 177 kts 178°
2026-05-07 21:31 49.99212 8.52688 1661 ft 179 kts 176°
2026-05-07 21:31 49.97910 8.52776 2160 ft 198 kts 175°
2026-05-07 21:32 49.96453 8.52879 2538 ft 222 kts 176°
2026-05-07 21:32 49.94875 8.52989 3307 ft 230 kts 177°
2026-05-07 21:32 49.93264 8.53101 4212 ft 233 kts 177°
2026-05-07 21:32 49.91629 8.53212 5101 ft 237 kts 179°
2026-05-07 21:33 49.90005 8.52810 5970 ft 239 kts 205°
2026-05-07 21:33 49.88676 8.51301 6836 ft 239 kts 232°
2026-05-07 21:33 49.87898 8.48931 7306 ft 260 kts 259°
2026-05-07 21:33 49.87932 8.46071 7941 ft 272 kts 278°
2026-05-07 21:34 49.88186 8.43138 8801 ft 277 kts 277°
2026-05-07 21:34 49.88436 8.40149 9680 ft 281 kts 277°
2026-05-07 21:34 49.88684 8.37104 10408 ft 292 kts 277°
2026-05-07 21:34 49.88942 8.33859 10713 ft 315 kts 277°
2026-05-07 21:35 49.89216 8.30356 10962 ft 339 kts 277°
2026-05-07 21:35 49.89507 8.26606 11144 ft 362 kts 276°
2026-05-07 21:35 49.89812 8.22627 11373 ft 381 kts 276°
2026-05-07 21:35 49.90131 8.18494 11939 ft 387 kts 276°
2026-05-07 21:36 49.90454 8.14325 12631 ft 391 kts 276°
2026-05-07 21:36 49.90777 8.10119 13305 ft 394 kts 276°
2026-05-07 21:36 49.91103 8.05883 13959 ft 398 kts 277°
2026-05-07 21:36 49.91777 8.01709 14516 ft 402 kts 291°
2026-05-07 21:37 49.92947 7.97749 15093 ft 405 kts 294°
2026-05-07 21:37 49.94132 7.93832 15663 ft 408 kts 294°
2026-05-07 21:37 49.95344 7.89840 16226 ft 410 kts 294°
2026-05-07 21:37 49.96563 7.85822 16779 ft 413 kts 294°
2026-05-07 21:38 49.97788 7.81763 17324 ft 416 kts 294°
2026-05-07 21:38 49.99017 7.77673 17855 ft 419 kts 294°
2026-05-07 21:38 50.00253 7.73552 18384 ft 422 kts 294°
2026-05-07 21:38 50.01498 7.69402 18839 ft 425 kts 294°
2026-05-07 21:39 50.02752 7.65224 19286 ft 427 kts 294°
2026-05-07 21:39 50.04009 7.61026 19728 ft 430 kts 294°
2026-05-07 21:39 50.05272 7.56793 20159 ft 432 kts 294°
2026-05-07 21:39 50.06539 7.52542 20581 ft 434 kts 294°
2026-05-07 21:40 50.07811 7.48265 20993 ft 437 kts 294°
2026-05-07 21:40 50.09093 7.43961 21412 ft 439 kts 294°
2026-05-07 21:40 50.10379 7.39636 21808 ft 441 kts 294°
2026-05-07 21:40 50.11666 7.35290 22046 ft 443 kts 294°
2026-05-07 21:41 50.12965 7.30891 22087 ft 449 kts 294°
2026-05-07 21:41 50.14270 7.26460 22082 ft 450 kts 294°
2026-05-07 21:41 50.15575 7.22024 22084 ft 450 kts 294°
2026-05-07 21:41 50.16880 7.17579 22085 ft 450 kts 294°
2026-05-07 21:42 50.18182 7.13138 22085 ft 450 kts 294°
2026-05-07 21:42 50.19481 7.08690 22085 ft 450 kts 294°
2026-05-07 21:42 50.20343 7.05743 22086 ft 450 kts 294°
2026-05-07 21:42 50.21640 7.01299 22083 ft 450 kts 294°
2026-05-07 21:43 50.22940 6.96842 22084 ft 450 kts 294°
2026-05-07 21:43 50.24235 6.92393 22083 ft 450 kts 294°
2026-05-07 21:43 50.25529 6.87941 22082 ft 450 kts 294°
2026-05-07 21:43 50.26822 6.83484 22081 ft 450 kts 294°
2026-05-07 21:44 50.28110 6.79027 22081 ft 450 kts 293°
2026-05-07 21:44 50.29392 6.74569 22080 ft 450 kts 293°
2026-05-07 21:44 50.30676 6.70100 22078 ft 450 kts 293°
2026-05-07 21:44 50.31955 6.65639 22078 ft 450 kts 293°
2026-05-07 21:45 50.33234 6.61174 22076 ft 450 kts 293°
2026-05-07 21:45 50.34512 6.56707 22076 ft 450 kts 293°
2026-05-07 21:45 50.35788 6.52237 22078 ft 450 kts 293°
2026-05-07 21:45 50.37064 6.47764 22076 ft 450 kts 293°
2026-05-07 21:46 50.38338 6.43291 22078 ft 450 kts 293°
2026-05-07 21:46 50.39615 6.38817 22077 ft 450 kts 293°
2026-05-07 21:46 50.40889 6.34349 22080 ft 450 kts 293°
2026-05-07 21:46 50.42162 6.29867 22078 ft 450 kts 293°
2026-05-07 21:47 50.43428 6.25382 22077 ft 450 kts 293°
2026-05-07 21:47 50.44690 6.20893 22078 ft 450 kts 292°
2026-05-07 21:47 50.45949 6.16408 22077 ft 450 kts 292°
2026-05-07 21:47 50.47208 6.11918 22075 ft 450 kts 292°
2026-05-07 21:48 50.48468 6.07426 22076 ft 450 kts 292°
2026-05-07 21:48 50.49723 6.02949 22083 ft 445 kts 292°
2026-05-07 21:48 50.50963 5.98513 22089 ft 442 kts 292°
2026-05-07 21:48 50.52195 5.94093 22088 ft 441 kts 292°
2026-05-07 21:49 50.53405 5.89741 22054 ft 440 kts 292°
2026-05-07 21:49 50.54609 5.85400 20906 ft 427 kts 292°
2026-05-07 21:49 50.55802 5.81097 19166 ft 431 kts 292°
2026-05-07 21:49 50.56994 5.76789 17630 ft 427 kts 292°
2026-05-07 21:50 50.58213 5.72576 16169 ft 421 kts 297°
2026-05-07 21:50 50.59777 5.68734 15006 ft 412 kts 307°
2026-05-07 21:50 50.61533 5.65347 14422 ft 388 kts 308°
2026-05-07 21:50 50.63214 5.62069 13789 ft 384 kts 307°
2026-05-07 21:51 50.64877 5.58782 13146 ft 384 kts 307°
2026-05-07 21:51 50.66526 5.55507 12520 ft 380 kts 307°
2026-05-07 21:51 50.68163 5.52257 11908 ft 377 kts 307°
2026-05-07 21:51 50.69783 5.49041 11438 ft 370 kts 307°
2026-05-07 21:52 50.71347 5.45941 11307 ft 353 kts 307°
2026-05-07 21:52 50.72844 5.42977 11175 ft 338 kts 308°
2026-05-07 21:52 50.74276 5.40140 11057 ft 324 kts 308°
2026-05-07 21:52 50.75656 5.37402 10924 ft 312 kts 308°
2026-05-07 21:53 50.76983 5.34769 10802 ft 301 kts 308°
2026-05-07 21:53 50.78270 5.32214 10586 ft 294 kts 308°
2026-05-07 21:53 50.79531 5.29706 10510 ft 291 kts 308°
2026-05-07 21:53 50.80789 5.27203 10437 ft 291 kts 308°
2026-05-07 21:54 50.82043 5.24704 10321 ft 290 kts 307°
2026-05-07 21:54 50.83294 5.22207 10194 ft 289 kts 307°
2026-05-07 21:54 50.84540 5.19711 10056 ft 289 kts 307°
2026-05-07 21:54 50.85798 5.17187 9545 ft 293 kts 308°
2026-05-07 21:55 50.87048 5.14682 9119 ft 287 kts 308°
2026-05-07 21:55 50.88197 5.12128 8534 ft 282 kts 302°
2026-05-07 21:55 50.89226 5.09557 8060 ft 280 kts 302°
2026-05-07 21:55 50.90286 5.06924 7586 ft 281 kts 302°
2026-05-07 21:56 50.91336 5.04313 7141 ft 281 kts 302°
2026-05-07 21:56 50.92383 5.01716 6727 ft 280 kts 302°
2026-05-07 21:56 50.93410 4.99163 6383 ft 276 kts 302°
2026-05-07 21:56 50.94447 4.96576 5912 ft 277 kts 302°
2026-05-07 21:57 50.95472 4.94022 5636 ft 270 kts 302°
2026-05-07 21:57 50.96456 4.91568 5506 ft 258 kts 302°
2026-05-07 21:57 50.97396 4.89220 5365 ft 247 kts 300°
2026-05-07 21:57 50.98043 4.86746 5110 ft 242 kts 283°
2026-05-07 21:58 50.98262 4.84074 4531 ft 244 kts 274°
2026-05-07 21:58 50.98411 4.81408 4030 ft 241 kts 275°
2026-05-07 21:58 50.98562 4.78839 3825 ft 227 kts 275°
2026-05-07 21:58 50.98582 4.76386 3690 ft 216 kts 260°
2026-05-07 21:59 50.98151 4.74112 3447 ft 217 kts 243°
2026-05-07 21:59 50.97517 4.71963 3113 ft 213 kts 244°
2026-05-07 21:59 50.96903 4.69855 2818 ft 208 kts 244°
2026-05-07 21:59 50.96307 4.67794 2537 ft 203 kts 244°
2026-05-07 22:00 50.95728 4.65792 2281 ft 194 kts 244°
2026-05-07 22:00 50.95188 4.63927 2011 ft 179 kts 244°
2026-05-07 22:00 50.94687 4.62194 1777 ft 168 kts 244°
2026-05-07 22:00 50.94218 4.60566 1571 ft 155 kts 244°
2026-05-07 22:01 50.93783 4.59061 1360 ft 147 kts 244°
2026-05-07 22:01 50.93360 4.57604 1155 ft 144 kts 245°
2026-05-07 22:01 50.92947 4.56173 967 ft 142 kts 245°
2026-05-07 22:01 50.92541 4.54765 779 ft 140 kts 245°
2026-05-07 22:02 50.92139 4.53373 597 ft 138 kts 245°
2026-05-07 22:02 50.91739 4.51991 416 ft 138 kts 245°
2026-05-07 22:02 50.91346 4.50613 237 ft 137 kts 245°
2026-05-07 22:02 50.90957 4.49261 124 ft 128 kts 245°
2026-05-07 22:03 50.90665 4.48244 117 ft 61 kts 245°
2026-05-07 22:03 50.90544 4.47845 120 ft 36 kts 238°
2026-05-07 22:03 50.90412 4.47629 123 ft 18 kts 219°
2026-05-07 22:03 50.90311 4.47599 118 ft 15 kts 121°
2026-05-07 22:04 50.90346 4.47766 119 ft 17 kts 64°
2026-05-07 22:04 50.90400 4.47948 118 ft 14 kts 68°
2026-05-07 22:04 50.90385 4.48043 118 ft 9 kts 144°
2026-05-07 22:04 50.90386 4.48180 119 ft 22 kts 66°
2026-05-07 22:05 50.90453 4.48409 119 ft 24 kts 65°
2026-05-07 22:05 50.90525 4.48660 117 ft 26 kts 65°
2026-05-07 22:05 50.90603 4.48930 117 ft 28 kts 65°
2026-05-07 22:05 50.90636 4.49136 120 ft 16 kts 128°
2026-05-07 22:06 50.90535 4.49214 121 ft 17 kts 156°
2026-05-07 22:06 50.90427 4.49292 121 ft 12 kts 163°
2026-05-07 22:06 50.90394 4.49284 120 ft 0 kts 204°
2026-05-07 22:07 50.90393 4.49281 121 ft 2 kts 215°
2026-05-07 22:07 50.90364 4.49193 121 ft 12 kts 247°
2026-05-07 22:08 50.90331 4.49076 123 ft 12 kts 245°
2026-05-07 22:08 50.90289 4.48938 124 ft 11 kts 244°
2026-05-07 22:08 50.90303 4.48856 121 ft 9 kts 339°
2026-05-07 22:08 50.90339 4.48833 117 ft 2 kts 336°
2026-05-07 22:09 50.90348 4.48826 118 ft 0 kts 336°